Temperature
15 15 15 16 16 17 18 20 22 22 22 22 22 22 22 21 20 18 17 17 17 17 17 17 17 16 16 16 16 16 16 16 16 16 16 15 15 15 15 15 15 15 15 15 15 15 15 15 15
14 15 15 16 16 17 19 20 21 21 21 21 21 21 21 20 18 17 16 16 16 17 17 17 16 16 16 16 16 16 16 16 15 15 15 15 15 15 15 15 15 15 15 15 15 15 15 15 15
14 14 15 16 17 17 19 20 20 21 21 21 21 20 20 19 17 17 16 16 16 16 16 16 16 16 16 16 16 16 15 15 15 15 15 15 15 15 15 15 15 15 15 15 15 15 15 15 15
14 14 16 16 17 18 19 20 20 20 20 20 20 19 18 17 16 16 16 16 16 16 16 16 15 15 15 15 15 15 15 15 15 15 15 15 15 15 15 15 15 15 15 15 15 15 15 15 15
14 15 15 15 16 18 19 19 19 20 20 20 20 19 17 16 16 16 16 15 15 15 15 15 15 15 15 15 15 15 15 15 15 15 15 15 15 15 15 15 15 15 15 15 15 15 15 14 14
14 15 15 15 17 18 18 19 19 19 19 19 19 18 16 15 16 16 15 15 15 15 14 15 15 15 14 15 15 15 15 15 15 15 15 15 15 15 14 14 14 14 14 14 14 14 14 14 14
14 14 15 16 16 17 18 18 18 18 18 18 18 17 16 15 15 15 15 15 14 14 14 14 14 14 14 14 14 14 15 15 15 15 14 14 14 14 14 14 14 14 14 14 14 14 14 14 14
13 14 15 15 16 16 17 17 17 17 17 17 16 16 15 14 14 14 14 14 14 14 14 14 14 14 14 14 14 14 14 14 14 14 14 14 14 14 14 14 14 14 14 14 14 14 14 14 13
13 13 13 15 15 16 16 16 16 15 15 15 15 14 13 13 14 14 14 13 13 13 13 13 14 14 14 14 14 14 14 14 14 14 14 14 14 13 13 13 14 14 14 14 13 13 13 13 13
13 12 13 14 14 15 15 15 15 15 14 14 13 13 13 13 13 13 13 13 13 13 13 13 13 13 13 13 13 13 13 13 13 13 13 13 13 13 13 13 13 13 13 13 13 13 13 13 13
12 12 13 13 13 13 14 14 14 14 13 14 13 12 12 12 12 12 12 12 12 12 12 13 13 13 13 13 13 13 13 13 13 13 13 13 13 13 13 13 13 13 13 13 13 13 13 12 12
12 12 13 12 12 12 13 13 13 13 12 13 13 12 12 12 12 12 12 12 12 12 12 12 13 13 13 13 13 12 13 13 13 13 13 13 12 12 12 12 12 12 12 12 12 12 12 12 12
12 12 12 12 12 12 12 12 12 12 12 12 12 12 12 11 11 11 11 12 12 12 12 12 12 12 12 12 12 12 12 12 12 12 12 12 12 12 12 12 12 12 12 12 12 12 12 12 11
11 11 11 11 11 11 11 11 12 11 12 12 12 11 11 11 11 11 11 11 11 11 12 12 12 12 12 12 12 12 12 12 12 12 12 12 12 12 12 12 11 11 12 12 12 11 11 11 11
11 10 10 11 11 11 11 11 11 12 12 12 12 11 11 11 11 11 11 11 11 11 11 11 11 11 12 12 12 11 11 11 11 12 11 11 11 12 11 11 11 11 11 11 11 11 11 11 11
11 10 10 11 12 11 10 10 12 12 12 12 12 11 11 10 10 10 10 10 10 11 11 11 11 11 11 11 11 11 11 11 11 11 11 11 11 11 11 11 11 11 11 11 11 11 11 11 11
10 10 10 11 11 12 11 10 11 12 12 12 11 11 11 10 10 10 10 10 10 10 10 10 10 10 11 11 11 11 11 11 11 11 11 11 11 11 11 11 11 11 11 11 11 10 10 10 10
10 10 11 11 11 11 10 10 11 11 11 11 11 11 10 10 10 10 10 10 10 10 10 10 10 10 10 10 10 10 10 10 10 10 10 10 10 10 10 11 11 11 10 10 10 10 10 10 10
10 10 10 10 11 10 9 10 11 11 11 10 10 10 10 10 10 9 9 9 9 9 9 9 9 10 10 10 10 10 10 10 10 10 10 10 10 10 10 10 10 10 10 10 10 10 10 10 9
10 9 9 10 10 10 9 10 10 10 10 10 10 10 9 9 9 9 9 9 9 9 9 9 9 9 9 9 9 9 9 9 9 9 9 10 10 10 10 10 10 10 10 10 10 10 9 9 9
9 9 9 9 9 10 9 9 10 10 10 10 10 10 9 9 9 8 8 8 8 8 8 8 9 9 9 9 9 9 8 8 8 9 9 9 9 9 9 9 9 9 9 9 9 9 9 9 9
8 9 9 9 8 8 9 7 9 9 9 9 9 9 9 9 8 8 8 8 8 8 8 8 8 8 8 8 8 8 8 8 8 8 8 8 8 9 9 9 9 9 9 9 9 9 9 9 8
8 9 8 8 7 7 8 7 8 9 9 8 8 8 8 8 8 7 7 7 7 7 7 7 7 7 8 7 7 7 7 8 8 8 8 8 8 8 8 8 8 8 8 8 8 8 8 8 8
8 8 8 8 7 6 8 8 8 8 9 8 8 8 8 7 7 7 7 7 7 7 7 7 7 7 7 7 7 7 7 7 7 7 7 7 8 8 8 8 8 8 8 8 8 8 7 7 7
7 6 6 6 6 7 9 8 8 9 8 8 8 8 7 7 7 6 6 6 6 6 6 6 6 6 6 6 6 6 6 6 6 7 7 7 7 7 7 7 7 7 7 7 7 7 7 7 7
7 7 6 6 7 7 9 8 8 9 8 8 8 7 6 6 6 6 5 6 6 6 6 6 6 6 6 6 6 6 6 6 6 6 6 6 6 7 7 7 7 7 7 7 7 7 6 6 6
7 6 7 6 6 6 7 8 8 8 7 7 7 6 6 5 5 5 5 5 5 5 5 5 5 5 5 5 5 5 5 5 5 6 6 6 6 6 6 6 6 6 6 6 6 6 6 6 6
6 6 5 5 6 6 8 8 7 7 6 6 6 6 5 5 5 5 5 5 5 5 5 5 5 5 5 5 5 5 5 5 5 5 5 5 5 6 5 6 6 6 6 6 6 6 5 5 5
5 5 5 5 5 6 6 7 7 7 6 6 5 5 5 4 4 4 4 4 4 4 4 4 5 5 5 5 5 5 5 4 4 4 5 5 5 5 5 5 5 5 5 5 5 5 5 5 5
6 6 5 4 5 5 5 5 7 6 6 5 5 5 4 4 4 4 4 4 4 4 4 4 4 4 4 4 4 4 4 4 4 4 4 4 4 5 5 5 5 5 5 5 4 4 4 4 4
Wind_Speed
15 13 6 2 3 5 9 7 5 2 1 2 4 4 4 4 4 5 3 5 8 9 12 13 12 11 11 11 11 11 11 11 11 10 10 10 10 11 11 12 12 12 13 12 12 13 14 14 14
12 9 4 3 4 7 7 8 6 1 2 3 3 3 3 3 5 6 4 4 7 9 12 12 12 12 11 11 11 11 11 11 10 10 10 10 10 10 10 11 11 12 12 12 12 13 13 13 12
9 7 3 3 5 8 6 3 2 2 4 2 1 2 2 3 4 4 4 4 7 9 11 12 13 12 11 11 11 11 11 10 10 10 10 9 9 10 10 10 11 11 11 12 12 12 12 12 11
5 3 3 5 9 8 6 2 1 1 2 0 0 1 3 4 3 4 5 6 8 8 10 12 12 12 12 11 11 11 11 10 9 9 9 9 9 9 10 10 11 11 12 12 12 12 12 11 10
4 3 5 7 10 7 4 2 1 2 2 1 0 0 2 4 6 7 6 6 7 8 9 11 11 11 11 10 11 10 10 10 9 9 9 9 9 9 10 10 10 11 12 12 12 11 11 10 10
3 3 5 8 8 6 5 4 3 3 2 0 0 0 2 4 6 6 5 5 6 8 8 9 10 10 9 9 10 10 10 9 9 9 9 9 9 10 9 10 10 11 11 11 11 10 10 9 8
3 3 5 7 7 6 5 3 2 1 2 2 2 1 3 4 5 5 5 5 6 7 7 7 8 8 8 8 9 10 9 9 9 9 9 9 9 9 9 10 10 10 10 10 10 10 9 8 7
3 3 5 6 7 6 4 2 2 3 2 3 4 1 2 3 4 4 5 5 6 6 5 4 6 7 6 6 8 9 9 9 9 9 9 9 9 8 8 10 9 9 9 9 9 9 9 8 6
3 3 5 5 4 3 2 2 2 3 3 3 3 3 2 3 4 4 4 4 4 4 3 4 5 5 5 5 6 7 8 9 9 8 9 8 7 7 7 9 9 9 8 8 8 8 7 7 5
2 3 4 3 4 3 3 3 3 1 2 2 2 3 2 3 3 3 2 2 2 2 2 3 4 3 4 4 5 5 6 7 6 6 7 6 5 6 7 8 9 8 7 7 8 7 6 5 3
2 4 4 4 5 5 3 3 3 2 3 2 2 1 1 2 1 1 1 1 1 1 2 2 3 3 3 2 3 3 4 4 5 5 4 5 5 5 6 6 7 7 6 5 6 6 4 4 3
4 4 5 5 4 4 4 3 3 3 4 4 2 1 0 0 0 1 1 0 1 1 1 1 3 3 3 2 2 2 3 2 3 4 4 4 3 3 4 4 5 5 4 4 4 3 4 4 3
6 5 5 4 4 4 3 4 5 5 5 5 3 2 3 3 2 2 2 1 1 1 1 1 2 3 3 2 2 2 2 3 3 4 4 4 3 3 3 3 3 4 4 3 3 3 2 2 2
2 3 5 5 5 4 5 6 6 6 4 5 4 4 4 4 3 2 2 1 1 1 1 1 2 2 3 3 2 2 2 2 3 3 3 4 4 3 2 2 2 2 3 3 3 3 2 1 1
3 4 5 6 6 3 3 6 7 7 5 5 5 4 3 3 2 2 2 2 2 2 1 1 2 2 3 3 2 1 1 2 2 3 3 4 4 4 3 2 2 2 2 2 2 2 2 1 1
4 4 4 3 4 4 3 7 4 3 4 5 4 4 3 3 3 2 2 1 1 1 2 1 0 2 2 3 3 2 2 2 2 2 3 4 4 4 3 2 2 2 2 1 1 2 1 1 1
4 4 5 2 2 2 4 7 3 2 4 5 4 4 4 3 2 2 2 2 2 1 2 2 1 1 2 2 3 2 2 2 2 2 2 3 4 4 3 3 2 2 1 1 1 2 2 1 1
3 4 5 4 2 4 7 9 7 5 6 6 5 4 4 3 3 2 2 2 2 2 2 2 2 1 2 2 2 2 2 1 2 2 1 2 3 4 3 2 2 2 2 1 1 2 2 1 1
6 6 8 6 4 5 8 11 10 6 7 7 5 5 4 4 2 2 3 2 1 2 2 2 2 2 2 2 3 2 2 2 1 1 1 2 2 3 3 2 2 2 2 2 2 3 3 1 1
6 7 8 6 3 5 8 12 10 7 8 8 7 6 4 3 2 2 3 2 2 2 2 2 2 2 2 2 3 2 3 2 2 1 1 1 2 2 2 3 3 2 2 2 2 3 2 1 1
6 6 6 7 7 6 7 9 7 5 6 6 5 4 4 5 4 3 2 2 1 2 2 2 2 2 3 3 3 2 2 1 1 1 2 1 1 2 2 3 3 3 3 3 3 3 4 3 2
5 4 5 7 6 4 3 5 4 4 4 4 4 4 4 4 3 2 2 2 2 2 2 2 2 2 2 3 4 5 4 3 3 3 2 2 2 2 2 2 3 3 3 2 2 2 2 3 3
3 5 6 7 6 6 6 5 5 3 4 4 4 4 3 3 3 2 3 3 2 2 2 3 3 2 2 3 4 5 4 3 3 3 3 3 2 2 2 2 2 3 2 3 2 2 2 2 2
4 4 5 4 3 5 6 6 4 2 3 2 2 2 2 2 1 1 1 1 1 1 2 3 3 3 2 2 4 5 5 5 4 4 4 3 2 2 2 2 2 2 2 3 3 2 3 2 2
2 2 2 1 2 5 2 3 5 2 2 2 2 1 0 1 1 0 1 1 1 1 2 3 3 3 2 3 4 5 5 6 6 6 5 4 3 2 3 3 2 2 2 2 2 2 3 3 3
2 1 1 2 3 3 2 4 3 2 4 5 4 4 3 2 2 0 1 1 2 2 2 3 3 3 2 3 4 4 5 4 4 5 4 4 3 3 3 3 3 3 3 3 3 2 3 3 3
2 1 1 2 3 3 4 4 2 3 5 5 5 5 4 3 3 2 2 1 2 2 2 2 3 3 3 3 3 3 4 4 4 4 4 3 3 3 3 3 3 3 3 3 3 3 3 3 3
2 2 1 1 2 4 5 4 3 2 4 4 5 5 5 4 3 3 3 2 1 2 2 1 2 2 3 2 3 2 3 4 4 3 3 3 3 3 3 3 3 3 3 3 3 3 3 3 3
2 2 2 3 3 3 4 3 2 2 3 4 5 5 5 4 4 3 3 2 1 1 1 1 2 2 2 2 2 2 3 3 3 2 3 3 3 3 3 3 3 3 3 3 3 3 4 4 3
2 2 2 2 4 3 4 4 2 4 4 5 6 6 6 5 5 4 3 2 3 2 1 2 2 2 2 1 2 2 2 2 2 2 2 2 3 3 3 3 2 2 2 3 3 3 4 4 3
Wind_Direction
312 295 274 260 239 230 233 236 252 235 276 2 7 352 11 5 19 98 102 64 101 127 135 139 136 133 132 128 124 122 118 116 114 111 108 105 105 110 111 108 106 106 104 102 98 95 92 89 86
303 299 282 240 233 230 230 223 233 222 61 42 11 2 354 29 61 94 94 70 104 123 132 139 137 134 132 131 130 127 123 121 118 115 112 109 105 107 112 111 110 108 107 105 101 97 94 91 88
284 279 267 238 230 233 237 228 192 84 69 44 356 9 356 33 63 86 98 95 101 109 122 131 136 136 133 132 131 126 124 123 122 117 114 112 110 109 108 110 111 109 109 107 104 100 97 94 90
284 239 236 242 238 242 251 274 355 128 115 83 24 75 73 39 46 76 88 88 93 104 114 126 132 136 135 133 132 128 127 126 126 122 118 116 112 110 109 105 109 110 109 108 105 102 99 96 92
255 243 225 233 244 252 271 306 297 251 217 192 204 300 84 58 71 84 87 88 94 102 106 126 128 132 135 136 136 135 133 132 131 127 124 120 116 112 111 108 110 115 115 111 107 105 102 99 95
258 247 232 231 235 246 250 258 247 247 264 253 193 185 106 73 72 85 89 89 93 100 101 120 126 128 132 137 140 141 138 137 133 129 127 125 118 114 113 114 113 116 118 115 112 110 107 103 99
262 257 249 255 248 250 255 266 251 267 277 301 328 314 125 60 53 88 95 93 89 96 99 112 123 126 131 137 144 145 143 140 136 131 129 125 120 118 115 118 117 118 120 119 117 115 111 107 103
303 280 251 254 254 252 263 290 338 342 309 3 5 13 103 55 44 81 96 90 89 92 101 110 122 121 118 126 138 145 147 144 138 134 131 125 122 122 121 123 121 121 124 125 122 120 117 112 108
295 256 240 251 269 269 300 302 345 7 348 357 13 16 49 57 46 63 85 78 81 93 100 118 118 113 123 132 134 134 139 139 138 138 138 135 132 131 126 128 126 124 126 133 131 129 126 121 120
225 238 246 300 328 330 344 333 336 353 303 306 350 18 51 68 64 62 95 98 99 114 117 112 124 117 116 133 139 142 143 145 144 146 150 149 143 135 130 133 130 129 131 141 144 146 144 140 149
224 240 260 294 317 330 324 317 322 296 282 264 241 258 34 41 40 36 54 132 135 135 124 125 130 122 119 113 133 134 134 148 150 153 152 142 131 131 134 137 136 138 140 153 164 168 158 151 154
251 265 273 283 307 314 306 305 309 273 271 308 313 287 255 137 263 305 306 244 139 115 114 150 139 137 129 120 128 134 136 149 151 161 161 139 127 133 143 147 150 153 151 165 179 175 163 161 163
246 254 268 289 293 292 291 279 279 268 265 278 272 263 263 241 236 262 264 193 147 156 208 204 164 152 146 134 146 147 149 154 146 152 161 139 133 147 144 148 156 160 164 179 186 173 171 164 168
297 302 282 272 275 287 278 275 262 258 247 256 231 233 239 236 223 238 234 194 181 193 215 220 178 159 154 154 167 160 139 147 134 141 159 151 146 140 144 148 158 173 181 189 185 172 165 166 163
272 275 275 256 247 240 280 271 243 248 231 236 231 226 221 234 227 214 223 218 195 184 183 203 186 161 166 160 166 143 137 140 140 138 164 166 157 146 148 156 161 175 179 180 173 147 140 171 193
247 249 252 224 225 211 226 259 245 253 232 232 233 234 220 223 225 210 205 217 200 152 150 139 154 179 180 169 162 157 152 132 136 144 161 165 157 147 145 157 169 177 162 143 169 148 144 181 205
218 242 256 257 221 244 233 261 245 246 250 245 238 235 226 224 225 222 207 199 189 179 160 140 139 176 188 176 157 151 146 139 127 134 145 147 152 147 143 162 164 152 138 135 179 145 149 169 240
256 261 269 265 243 268 260 262 263 253 258 259 249 244 240 228 229 214 227 206 184 190 172 155 158 161 176 170 156 148 140 138 117 132 136 142 150 155 145 150 150 139 145 171 170 158 148 156 203
287 285 284 286 293 286 268 272 271 263 254 253 251 246 247 242 224 189 210 228 201 187 179 180 166 173 169 169 172 174 178 169 161 155 145 159 157 150 150 147 149 154 178 194 182 159 149 153 120
266 272 282 289 290 287 279 277 272 253 246 246 247 246 243 250 239 230 216 216 226 220 202 201 195 193 191 191 181 186 181 178 178 170 141 168 157 142 154 161 177 179 190 190 186 161 156 171 153
278 269 280 294 308 273 281 282 246 234 231 240 244 250 249 245 242 232 241 239 233 231 225 226 201 206 200 191 162 158 168 170 180 191 193 199 191 177 175 184 177 175 176 191 197 181 169 187 204
286 310 300 294 297 279 249 287 256 229 231 237 247 250 248 254 248 226 230 249 241 226 214 231 221 205 198 193 175 174 186 190 203 199 202 187 182 189 190 194 187 179 183 187 204 213 193 175 193
288 313 296 284 274 282 252 247 274 219 239 245 248 244 240 242 246 235 231 240 238 209 203 216 233 228 195 200 197 187 199 202 187 185 196 192 182 187 196 186 180 184 185 193 195 195 193 191 192
306 298 278 261 255 266 238 219 272 249 251 271 274 247 221 219 235 256 284 288 262 218 207 215 216 229 202 196 209 198 200 199 188 191 196 196 190 190 193 190 176 184 188 195 199 194 188 191 193
296 344 340 302 236 248 226 225 251 284 3 9 332 347 75 82 35 286 311 319 291 253 223 213 215 222 210 207 212 212 205 201 198 194 193 196 201 202 204 201 190 186 197 191 188 193 196 191 190
266 247 198 265 272 301 299 247 253 45 36 30 30 34 27 22 26 353 287 277 280 270 239 216 220 223 217 221 221 216 207 198 203 198 196 201 205 202 198 193 188 192 192 199 187 195 203 195 194
289 241 262 278 281 273 254 248 254 10 13 14 8 10 360 356 3 359 347 317 285 264 254 231 231 222 222 226 223 224 212 201 207 199 193 200 196 191 183 186 189 194 194 195 192 194 205 197 200
281 315 318 226 278 276 267 254 289 335 336 346 350 347 345 356 357 354 345 332 284 263 261 234 241 233 229 222 224 232 211 203 202 196 193 189 179 177 179 184 190 198 202 198 198 189 196 196 201
213 234 239 253 258 265 285 281 24 22 10 356 342 338 339 349 347 343 340 341 315 305 314 276 273 270 246 223 223 211 207 191 196 194 185 182 174 172 176 183 190 194 197 201 197 198 191 199 206
291 271 209 226 263 252 267 274 25 40 30 11 358 348 347 353 355 356 356 357 347 330 302 299 285 286 272 230 206 194 188 175 189 189 187 175 173 174 180 181 183 199 202 198 201 209 205 201 204
Height
1491 1492 1494 1496 1497 1496 1491 1482 1476 1476 1476 1478 1479 1480 1482 1486 1489 1498 1498 1496 1496 1496 1498 1500 1502 1504 1505 1507 1509 1510 1512 1513 1514 1515 1516 1518 1519 1520 1520 1521 1522 1523 1523 1524 1525 1525 1526 1526 1526
1491 1492 1495 1495 1495 1496 1488 1479 1477 1476 1478 1480 1481 1482 1484 1487 1491 1494 1495 1495 1496 1496 1498 1500 1502 1504 1505 1507 1509 1510 1512 1513 1515 1516 1517 1518 1519 1520 1521 1522 1523 1523 1524 1524 1525 1526 1526 1527 1527
1491 1492 1494 1492 1490 1489 1484 1476 1476 1476 1479 1481 1483 1485 1487 1491 1493 1494 1494 1495 1495 1496 1497 1499 1501 1503 1505 1507 1509 1510 1512 1513 1515 1516 1517 1518 1519 1520 1521 1522 1523 1524 1524 1525 1525 1526 1527 1527 1528
1492 1493 1493 1492 1487 1481 1478 1477 1476 1477 1480 1482 1483 1486 1489 1493 1493 1494 1494 1495 1495 1496 1497 1499 1501 1503 1505 1506 1508 1510 1511 1513 1515 1516 1517 1519 1520 1521 1522 1522 1523 1524 1525 1525 1526 1526 1527 1528 1528
1491 1491 1491 1490 1485 1480 1477 1477 1478 1479 1480 1482 1484 1486 1490 1492 1492 1493 1494 1495 1495 1496 1497 1499 1501 1502 1504 1506 1508 1509 1511 1513 1514 1516 1517 1519 1520 1521 1522 1522 1523 1524 1525 1526 1526 1527 1527 1528 1528
1491 1489 1490 1489 1483 1479 1478 1479 1479 1479 1480 1482 1485 1487 1491 1492 1492 1492 1494 1495 1495 1495 1497 1499 1501 1502 1504 1506 1507 1509 1511 1512 1514 1515 1517 1518 1519 1520 1521 1522 1523 1524 1525 1526 1526 1527 1527 1528 1529
1492 1489 1488 1484 1482 1480 1478 1478 1479 1480 1481 1483 1485 1487 1489 1491 1491 1492 1493 1495 1495 1496 1496 1498 1500 1502 1504 1505 1507 1508 1510 1512 1513 1515 1517 1518 1519 1520 1521 1522 1523 1524 1525 1526 1526 1527 1527 1528 1528
1489 1489 1486 1483 1482 1481 1479 1479 1480 1481 1482 1484 1485 1487 1489 1491 1491 1492 1493 1494 1495 1496 1497 1498 1500 1501 1503 1504 1506 1508 1509 1511 1513 1514 1516 1517 1518 1520 1521 1522 1523 1524 1525 1525 1526 1527 1527 1528 1528
1490 1492 1488 1484 1482 1481 1479 1480 1481 1482 1483 1484 1486 1488 1488 1490 1490 1491 1491 1493 1494 1495 1496 1497 1499 1500 1502 1503 1505 1506 1508 1510 1512 1513 1515 1516 1517 1519 1520 1521 1522 1523 1524 1525 1525 1526 1527 1527 1528
1489 1491 1486 1484 1483 1482 1481 1481 1482 1483 1484 1485 1486 1487 1487 1488 1489 1490 1491 1491 1493 1494 1495 1496 1498 1499 1500 1502 1503 1505 1507 1508 1510 1512 1513 1515 1516 1517 1519 1520 1521 1522 1523 1524 1525 1525 1526 1526 1527
1488 1488 1486 1485 1484 1483 1483 1483 1483 1484 1485 1486 1486 1486 1486 1488 1488 1489 1490 1491 1492 1493 1494 1495 1496 1498 1499 1500 1502 1503 1505 1507 1508 1510 1511 1513 1514 1516 1517 1519 1519 1520 1521 1522 1523 1524 1524 1525 1525
1488 1486 1486 1486 1485 1485 1484 1484 1484 1484 1486 1486 1485 1485 1486 1487 1487 1488 1489 1490 1491 1492 1492 1493 1495 1496 1497 1498 1500 1501 1503 1505 1506 1508 1509 1511 1512 1514 1515 1517 1518 1519 1520 1521 1521 1522 1523 1523 1524
1487 1486 1486 1485 1485 1484 1485 1485 1485 1483 1484 1484 1484 1483 1484 1486 1486 1487 1488 1489 1489 1490 1490 1491 1493 1494 1495 1497 1498 1500 1501 1503 1504 1506 1508 1509 1510 1512 1513 1515 1516 1517 1518 1519 1520 1520 1521 1522 1522
1486 1486 1486 1485 1484 1484 1484 1483 1483 1480 1482 1482 1482 1482 1483 1484 1485 1485 1485 1486 1487 1488 1488 1489 1490 1492 1493 1494 1496 1497 1499 1501 1502 1504 1506 1507 1508 1509 1511 1512 1513 1515 1516 1517 1517 1518 1519 1519 1520
1487 1487 1485 1483 1482 1483 1484 1481 1479 1478 1479 1480 1480 1480 1481 1481 1482 1483 1483 1484 1485 1486 1486 1487 1488 1489 1491 1492 1494 1495 1497 1499 1500 1501 1503 1505 1506 1507 1508 1510 1511 1512 1514 1514 1515 1515 1516 1517 1517
1486 1486 1485 1479 1479 1480 1486 1482 1476 1476 1476 1477 1477 1478 1478 1478 1479 1480 1481 1482 1483 1483 1484 1485 1485 1486 1488 1489 1491 1493 1494 1496 1497 1499 1500 1502 1503 1505 1506 1508 1509 1510 1511 1512 1513 1512 1513 1514 1514
1485 1485 1481 1479 1478 1478 1481 1478 1474 1474 1475 1475 1475 1475 1476 1476 1476 1477 1478 1479 1480 1481 1482 1482 1483 1483 1484 1486 1488 1490 1491 1493 1494 1496 1498 1499 1500 1502 1503 1505 1506 1507 1508 1509 1510 1510 1511 1511 1512
1485 1483 1479 1479 1477 1478 1478 1475 1472 1473 1473 1472 1472 1472 1473 1473 1474 1475 1476 1477 1477 1478 1478 1479 1480 1480 1481 1483 1485 1487 1488 1490 1491 1493 1495 1496 1498 1499 1500 1501 1503 1504 1505 1506 1506 1507 1508 1509 1509
1482 1482 1481 1478 1477 1478 1476 1472 1469 1469 1470 1469 1469 1469 1469 1470 1472 1473 1473 1474 1474 1474 1475 1475 1476 1477 1477 1479 1481 1482 1484 1486 1488 1490 1492 1493 1495 1496 1497 1498 1499 1500 1501 1502 1503 1504 1504 1505 1506
1482 1482 1480 1477 1476 1477 1474 1469 1465 1465 1465 1465 1465 1465 1466 1467 1468 1469 1470 1470 1471 1471 1471 1472 1473 1474 1475 1476 1477 1480 1481 1482 1484 1486 1488 1490 1491 1493 1493 1494 1496 1497 1498 1499 1499 1500 1501 1502 1503
1482 1482 1481 1480 1478 1475 1475 1469 1462 1460 1460 1460 1461 1462 1463 1464 1465 1465 1466 1466 1467 1467 1468 1469 1470 1471 1472 1473 1474 1476 1478 1479 1481 1482 1484 1486 1488 1489 1490 1491 1493 1494 1495 1495 1496 1496 1497 1497 1499
1483 1480 1479 1480 1483 1481 1476 1478 1461 1458 1458 1458 1459 1459 1460 1461 1461 1461 1462 1463 1463 1463 1464 1466 1467 1468 1469 1469 1470 1472 1473 1474 1476 1478 1480 1482 1484 1485 1487 1488 1489 1490 1491 1492 1492 1493 1493 1494 1494
1483 1481 1481 1481 1483 1484 1476 1478 1463 1456 1457 1457 1456 1456 1456 1457 1458 1458 1458 1459 1459 1460 1461 1462 1463 1464 1464 1466 1467 1467 1469 1471 1473 1475 1476 1478 1480 1481 1483 1484 1485 1486 1487 1488 1489 1489 1490 1490 1490
1482 1481 1480 1480 1483 1487 1472 1473 1466 1458 1454 1453 1453 1453 1453 1454 1455 1455 1454 1455 1456 1456 1457 1458 1459 1460 1461 1462 1463 1464 1466 1467 1468 1470 1472 1473 1475 1477 1478 1480 1481 1481 1483 1484 1484 1485 1486 1486 1487
1484 1488 1489 1488 1487 1480 1463 1466 1464 1454 1452 1452 1452 1451 1451 1451 1451 1451 1451 1452 1452 1452 1453 1454 1455 1456 1458 1459 1460 1460 1462 1464 1465 1466 1467 1469 1470 1471 1473 1475 1476 1477 1479 1479 1480 1481 1482 1482 1483
1484 1486 1493 1490 1483 1474 1465 1466 1459 1453 1452 1452 1452 1451 1451 1450 1450 1449 1449 1449 1449 1449 1449 1450 1451 1453 1454 1456 1456 1458 1459 1460 1461 1462 1463 1465 1466 1467 1469 1471 1473 1474 1475 1476 1476 1477 1478 1478 1479
1485 1486 1484 1488 1484 1483 1472 1460 1455 1453 1452 1452 1452 1451 1450 1449 1448 1447 1447 1447 1447 1447 1447 1447 1449 1450 1451 1453 1453 1454 1456 1456 1457 1458 1460 1461 1462 1464 1466 1467 1469 1470 1471 1471 1472 1473 1473 1474 1475
1486 1485 1488 1489 1487 1480 1465 1459 1460 1456 1455 1454 1453 1452 1450 1448 1447 1446 1446 1445 1445 1445 1445 1445 1446 1447 1448 1449 1450 1451 1452 1453 1454 1454 1456 1457 1459 1460 1462 1463 1465 1466 1467 1468 1468 1469 1469 1470 1470
1486 1487 1486 1486 1484 1483 1476 1468 1457 1456 1455 1455 1454 1452 1451 1448 1446 1445 1444 1443 1443 1444 1444 1444 1444 1444 1444 1445 1446 1448 1448 1449 1450 1451 1452 1454 1455 1457 1458 1459 1461 1461 1463 1464 1464 1464 1465 1466 1467
1482 1483 1485 1489 1485 1480 1480 1473 1457 1456 1455 1455 1454 1453 1450 1448 1446 1445 1443 1442 1441 1441 1441 1441 1441 1442 1442 1442 1443 1443 1444 1445 1447 1447 1448 1450 1451 1453 1454 1455 1456 1457 1458 1459 1460 1460 1461 1462 1462